Location: Pacheco
(37.9835°N, 122.0752°W)
Time: 15:01:29
(UTC+00:00)

ATLAS 2AS CENTAUR R/B - Visible Passes

Search period start: 12 July 2024 00:00
Search period end: 22 July 2024 00:00
Orbit: 1019 x 1192 km, 63.7° (Epoch: 11 July)

Date Brightness Start Highest point End Pass type
(mag) Time Alt. Az. Time Alt. Az. Time Alt. Az.
15 Jul 5.3 12:27:43 10° SE 12:31:12 14° ESE 12:34:37 10° ENE visible
18 Jul 5.1 12:01:58 10° SSE 12:06:55 19° ESE 12:11:47 10° ENE visible
19 Jul 5.4 11:21:30 10° ESE 11:22:25 10° ESE 11:23:21 10° E visible
20 Jul 3.9 12:20:28 10° S 12:27:22 43° ESE 12:34:04 10° NE visible
21 Jul 4.6 11:36:47 10° SSE 11:42:41 26° ESE 11:48:27 10° ENE visible
